Hourly Data Report for November 08, 2019

All times are specified in Local Standard Time (LST). Add 1 hour to adjust for Daylight Saving Time where and when it is observed.

WOODSTOCK NEWBRIDGE
NEW BRUNSWICK
Current Station Operator: ECCC - MSC

46°09'08.000" N
67°32'34.000" W
154.00 m
8105603
71606
EWD

Download Data

Hourly Data (November 2019)
Hourly Data Report for November 8, 2019
TIME Temp Definition
°C
Dew Point Definition
°C
Rel Hum Definition
%
Wind Dir Definition
10's deg

Wind Spd Definition
km/h
Visibility Definition
km
Stn Press Definition
kPa
Hmdx Definition


Wind Chill Definition


Weather Definition


00:00 -0.3 -0.6 97   0   99.50     LegendNANA
01:00 -0.5 -1.0 97   0   99.48     LegendNANA
02:00 -1.1 -1.8 95   0   99.48     LegendNANA
03:00 -1.5 -2.3 94 29 LegendMM   99.43     LegendNANA
04:00 -2.1 -3.4 91 32 LegendMM   99.37     LegendNANA
05:00 -2.7 -3.8 92 30 LegendMM   99.33     LegendNANA
06:00 -3.1 -4.1 93 30 LegendMM   99.29     LegendNANA
07:00 -3.3 -4.2 93 30 LegendMM   99.28     LegendNANA
08:00 -3.5 -4.5 92 30 LegendMM   99.30     LegendNANA
09:00 -3.6 -4.7 92 30 LegendMM   99.32     LegendNANA
10:00 -3.8 -4.8 93 31 LegendMM   99.32     LegendNANA
11:00 -3.7 -5.0 90 30 LegendMM   99.33     LegendNANA
12:00 -3.3 -5.3 86 31 LegendMM   99.27     LegendNANA
13:00 -3.4 -6.1 82   0   99.23     LegendNANA
14:00 -3.3 -6.3 80 31 8   99.23   -7 LegendNANA
15:00 -3.3 -6.5 79 31 6   99.23   -6 LegendNANA
16:00 -3.3 -5.8 82 30 5   99.26   -5 LegendNANA
17:00 -3.8 -5.8 86 28 5   99.31   -6 LegendNANA
18:00 -4.1 -6.5 84 30 9   99.39   -8 LegendNANA
19:00 -4.8 -7.6 81 30 8   99.48   -8 LegendNANA
20:00 -5.4 -7.4 86 28 6   99.54   -8 LegendNANA
21:00 -4.8 -7.4 82 29 10   99.59   -9 LegendNANA
22:00 -4.8 -7.9 79 28 8   99.64   -8 LegendNANA
23:00 -4.8 -8.1 78 29 7   99.67   -8 LegendNANA

Notes on Data Quality.

Legend

  • E = Estimated
  • M = Missing
  • NA = Not Available
Date modified: